Tracking 28126 objects as of 1-Oct-2023
HD Live streaming from Space Station
objects crossing your sky now

DELTA 1 DEB

Track DELTA 1 DEB now!
10-day predictions


NORAD ID: 15540
Int'l Code: 1976-077EU
Perigee: 1,371.2 km
Apogee: 2,304.1 km
Inclination: 102.7 °
Period: 123.4 minutes
Semi major axis: 8208 km
RCS: 0.045 m2 (small)
Launch date: July 29, 1976
Source: United States (US)
Launch site: AIR FORCE WESTERN TEST RANGE (AFWTR)

Note: This is SATELLITE DEBRIS
Your satellite tracking list
Your tracking list is empty




NASA's NSSDC Master Catalog

Two Line Element Set (TLE):
1 15540U 76077EU  23274.04873778  .00000286  00000-0  39345-2 0  9996
2 15540 102.6708 296.0396 0568225 152.3452 240.8432 11.67327400680105
Source of the keplerian elements: AFSPC